| time (UTC) | temp C | wind direction | speed KPH | gust KPH | rain 1hr cm | rain 24hr cm | rain mn cm | humidity % | barometer mb |
| 20260905211802 | 22 | 240 | 8.0 | 0.0 | 0.00 | 0.00 | 0.00 | 57 | 1014.0 |
| 20260905210302 | 22 | 240 | 8.0 | 0.0 | 0.00 | 0.00 | 0.00 | 57 | 1014.0 |
| 20260905204812 | 22 | 220 | 9.7 | 0.0 | 0.00 | 0.00 | 0.00 | 65 | 1014.0 |
| 20260905203302 | 22 | 220 | 9.7 | 0.0 | 0.00 | 0.00 | 0.00 | 65 | 1014.0 |
| 20260905201802 | 22 | 230 | 8.0 | 0.0 | 0.00 | 0.00 | 0.00 | 61 | 1014.0 |
| 20260905200416 | 22 | 250 | 4.8 | 0.0 | 0.00 | 0.00 | 0.00 | 53 | 1014.0 |
| 20260905194907 | 22 | 250 | 4.8 | 0.0 | 0.00 | 0.00 | 0.00 | 53 | 1014.0 |
| 20260905193302 | 22 | 250 | 4.8 | 0.0 | 0.00 | 0.00 | 0.00 | 53 | 1014.0 |
| 20260905191831 | 22 | 0 | 0.0 | 0.0 | 0.00 | 0.00 | 0.00 | 53 | 1014.0 |
| 20260905190302 | 22 | 0 | 0.0 | 0.0 | 0.00 | 0.00 | 0.00 | 53 | 1014.0 |
| 20260905184803 | 23 | 210 | 3.2 | 0.0 | 0.00 | 0.00 | 0.00 | 47 | 1014.0 |
| 20260905183307 | 23 | 210 | 3.2 | 0.0 | 0.00 | 0.00 | 0.00 | 47 | 1014.0 |
| 20260905181802 | 25 | 210 | 4.8 | 0.0 | 0.00 | 0.00 | 0.00 | 44 | 1014.0 |
| 20260905180302 | 25 | 210 | 4.8 | 0.0 | 0.00 | 0.00 | 0.00 | 44 | 1014.0 |
| 20260905174802 | 25 | 210 | 8.0 | 0.0 | 0.00 | 0.00 | 0.00 | 44 | 1014.0 |
| 20260905173302 | 25 | 210 | 8.0 | 0.0 | 0.00 | 0.00 | 0.00 | 44 | 1014.0 |
| 20260905171812 | 26 | 210 | 4.8 | 0.0 | 0.00 | 0.00 | 0.00 | 42 | 1014.0 |
| 20260905170302 | 26 | 210 | 4.8 | 0.0 | 0.00 | 0.00 | 0.00 | 42 | 1014.0 |
| 20260905164802 | 27 | 240 | 8.0 | 0.0 | 0.00 | 0.00 | 0.00 | 42 | 1014.0 |
| 20260905163303 | 27 | 240 | 8.0 | 0.0 | 0.00 | 0.00 | 0.00 | 42 | 1014.0 |
| 20260905161803 | 28 | 250 | 12.9 | 0.0 | 0.00 | 0.00 | 0.00 | 37 | 1014.0 |
| 20260905160302 | 28 | 250 | 12.9 | 0.0 | 0.00 | 0.00 | 0.00 | 37 | 1014.0 |
| 20260905154818 | 31 | 270 | 14.5 | 0.0 | 0.00 | 0.00 | 0.00 | 29 | 1014.0 |
| 20260905153302 | 31 | 270 | 14.5 | 0.0 | 0.00 | 0.00 | 0.00 | 29 | 1014.0 |
| 20260905151802 | 32 | 260 | 14.5 | 0.0 | 0.00 | 0.00 | 0.00 | 26 | 1014.0 |
| 20260905150303 | 32 | 260 | 14.5 | 0.0 | 0.00 | 0.00 | 0.00 | 26 | 1014.0 |
| 20260905144802 | 32 | 260 | 14.5 | 0.0 | 0.00 | 0.00 | 0.00 | 24 | 1014.0 |
| 20260905143302 | 32 | 260 | 14.5 | 0.0 | 0.00 | 0.00 | 0.00 | 24 | 1014.0 |
| 20260905141802 | 32 | 230 | 12.9 | 0.0 | 0.00 | 0.00 | 0.00 | 24 | 1014.0 |
| 20260905140302 | 32 | 230 | 12.9 | 0.0 | 0.00 | 0.00 | 0.00 | 24 | 1014.0 |
| 20260905134912 | 32 | 250 | 12.9 | 0.0 | 0.00 | 0.00 | 0.00 | 24 | 1014.0 |
| 20260905133302 | 32 | 250 | 12.9 | 0.0 | 0.00 | 0.00 | 0.00 | 24 | 1014.0 |
| 20260905131808 | 32 | 260 | 16.1 | 0.0 | 0.00 | 0.00 | 0.00 | 28 | 1014.0 |
| 20260905130323 | 32 | 260 | 16.1 | 0.0 | 0.00 | 0.00 | 0.00 | 28 | 1014.0 |
| 20260905124803 | 32 | 250 | 22.5 | 0.0 | 0.00 | 0.00 | 0.00 | 24 | 1015.0 |
| 20260905123303 | 32 | 250 | 22.5 | 0.0 | 0.00 | 0.00 | 0.00 | 24 | 1015.0 |
| 20260905121829 | 32 | 290 | 17.7 | 0.0 | 0.00 | 0.00 | 0.00 | 26 | 1015.0 |
| 20260905120302 | 32 | 290 | 17.7 | 0.0 | 0.00 | 0.00 | 0.00 | 26 | 1015.0 |
| 20260905114802 | 32 | 300 | 16.1 | 0.0 | 0.00 | 0.00 | 0.00 | 24 | 1016.0 |
| 20260905113302 | 32 | 300 | 16.1 | 0.0 | 0.00 | 0.00 | 0.00 | 24 | 1016.0 |
| 20260905111820 | 32 | 300 | 14.5 | 0.0 | 0.00 | 0.00 | 0.00 | 27 | 1016.0 |
| 20260905110302 | 32 | 300 | 14.5 | 0.0 | 0.00 | 0.00 | 0.00 | 27 | 1016.0 |
| 20260905104802 | 32 | 270 | 16.1 | 0.0 | 0.00 | 0.00 | 0.00 | 27 | 1016.0 |
| 20260905103302 | 32 | 270 | 16.1 | 0.0 | 0.00 | 0.00 | 0.00 | 27 | 1016.0 |
| 20260905101802 | 32 | 260 | 14.5 | 0.0 | 0.00 | 0.00 | 0.00 | 27 | 1016.0 |
| 20260905100303 | 32 | 260 | 14.5 | 0.0 | 0.00 | 0.00 | 0.00 | 27 | 1016.0 |
| 20260905094915 | 31 | 260 | 17.7 | 0.0 | 0.00 | 0.00 | 0.00 | 27 | 1016.0 |
| 20260905093302 | 31 | 260 | 17.7 | 0.0 | 0.00 | 0.00 | 0.00 | 27 | 1016.0 |
| 20260905091802 | 30 | 260 | 16.1 | 0.0 | 0.00 | 0.00 | 0.00 | 33 | 1016.0 |
| 20260905090302 | 30 | 260 | 16.1 | 0.0 | 0.00 | 0.00 | 0.00 | 33 | 1016.0 |
| 20260905084802 | 28 | 290 | 12.9 | 0.0 | 0.00 | 0.00 | 0.00 | 33 | 1017.0 |
| 20260905083302 | 28 | 290 | 12.9 | 0.0 | 0.00 | 0.00 | 0.00 | 33 | 1017.0 |
| 20260905081802 | 27 | 250 | 11.3 | 0.0 | 0.00 | 0.00 | 0.00 | 40 | 1017.0 |
| 20260905080303 | 27 | 250 | 11.3 | 0.0 | 0.00 | 0.00 | 0.00 | 40 | 1017.0 |
| 20260905074802 | 27 | 280 | 9.7 | 0.0 | 0.00 | 0.00 | 0.00 | 42 | 1017.0 |
| 20260905073311 | 27 | 280 | 9.7 | 0.0 | 0.00 | 0.00 | 0.00 | 42 | 1017.0 |
| 20260905071802 | 25 | 290 | 14.5 | 0.0 | 0.00 | 0.00 | 0.00 | 47 | 1017.0 |
| 20260905070302 | 25 | 290 | 14.5 | 0.0 | 0.00 | 0.00 | 0.00 | 47 | 1017.0 |
| 20260905064802 | 22 | 270 | 14.5 | 0.0 | 0.00 | 0.00 | 0.00 | 61 | 1017.0 |
| 20260905063302 | 22 | 270 | 14.5 | 0.0 | 0.00 | 0.00 | 0.00 | 61 | 1017.0 |
| 20260905061803 | 21 | 270 | 11.3 | 0.0 | 0.00 | 0.00 | 0.00 | 69 | 1017.0 |
| 20260905060303 | 21 | 270 | 11.3 | 0.0 | 0.00 | 0.00 | 0.00 | 69 | 1017.0 |
| 20260905054802 | 18 | 260 | 9.7 | 0.0 | 0.00 | 0.00 | 0.00 | 78 | 1016.0 |
| 20260905053303 | 18 | 260 | 9.7 | 0.0 | 0.00 | 0.00 | 0.00 | 78 | 1016.0 |
| 20260905051802 | 17 | 270 | 9.7 | 0.0 | 0.00 | 0.00 | 0.00 | 83 | 1016.0 |
| 20260905050302 | 17 | 270 | 9.7 | 0.0 | 0.00 | 0.00 | 0.00 | 83 | 1016.0 |
| 20260905044802 | 16 | 260 | 8.0 | 0.0 | 0.00 | 0.00 | 0.00 | 88 | 1016.0 |
| 20260905043302 | 16 | 260 | 8.0 | 0.0 | 0.00 | 0.00 | 0.00 | 88 | 1016.0 |
| 20260905041802 | 15 | 240 | 8.0 | 0.0 | 0.00 | 0.00 | 0.00 | 94 | 1016.0 |
| 20260905040302 | 15 | 240 | 8.0 | 0.0 | 0.00 | 0.00 | 0.00 | 94 | 1016.0 |
| 20260905034802 | 15 | 250 | 4.8 | 0.0 | 0.00 | 0.00 | 0.00 | 94 | 1016.0 |
| 20260905033302 | 15 | 250 | 4.8 | 0.0 | 0.00 | 0.00 | 0.00 | 94 | 1016.0 |
| 20260905031802 | 15 | 0 | 0.0 | 0.0 | 0.00 | 0.00 | 0.00 | 94 | 1016.0 |
| 20260905030302 | 15 | 0 | 0.0 | 0.0 | 0.00 | 0.00 | 0.00 | 94 | 1016.0 |
| 20260905024815 | 15 | 3.2 | 0.0 | 0.00 | 0.00 | 0.00 | 94 | 1016.0 | |
| 20260905023302 | 15 | 3.2 | 0.0 | 0.00 | 0.00 | 0.00 | 94 | 1016.0 | |
| 20260905021802 | 15 | 310 | 8.0 | 0.0 | 0.00 | 0.00 | 0.00 | 94 | 1016.0 |
| 20260905020303 | 15 | 310 | 8.0 | 0.0 | 0.00 | 0.00 | 0.00 | 94 | 1016.0 |
| 20260905014802 | 16 | 3.2 | 0.0 | 0.00 | 0.00 | 0.00 | 94 | 1016.0 | |
| 20260905013302 | 16 | 3.2 | 0.0 | 0.00 | 0.00 | 0.00 | 94 | 1016.0 | |
| 20260905011802 | 16 | 0 | 0.0 | 0.0 | 0.00 | 0.00 | 0.00 | 94 | 1016.0 |
| 20260905010303 | 16 | 0 | 0.0 | 0.0 | 0.00 | 0.00 | 0.00 | 94 | 1016.0 |
| 20260905004803 | 17 | 220 | 3.2 | 0.0 | 0.00 | 0.00 | 0.00 | 88 | 1016.0 |
| 20260905003303 | 17 | 220 | 3.2 | 0.0 | 0.00 | 0.00 | 0.00 | 88 | 1016.0 |
| 20260905001802 | 17 | 340 | 4.8 | 0.0 | 0.00 | 0.00 | 0.00 | 83 | 1016.0 |
| 20260905000303 | 17 | 340 | 4.8 | 0.0 | 0.00 | 0.00 | 0.00 | 83 | 1016.0 |
| 20260904234802 | 17 | 280 | 4.8 | 0.0 | 0.00 | 0.00 | 0.00 | 78 | 1016.0 |
| 20260904233302 | 17 | 280 | 4.8 | 0.0 | 0.00 | 0.00 | 0.00 | 78 | 1016.0 |
| 20260904231804 | 17 | 0 | 0.0 | 0.0 | 0.00 | 0.00 | 0.00 | 78 | 1016.0 |
| 20260904230302 | 17 | 0 | 0.0 | 0.0 | 0.00 | 0.00 | 0.00 | 78 | 1016.0 |
| 20260904224804 | 18 | 0 | 0.0 | 0.0 | 0.00 | 0.00 | 0.00 | 73 | 1016.0 |
| 20260904223302 | 18 | 0 | 0.0 | 0.0 | 0.00 | 0.00 | 0.00 | 73 | 1016.0 |
| 20260904221803 | 20 | 310 | 4.8 | 0.0 | 0.00 | 0.00 | 0.00 | 69 | 1016.0 |
| 20260904220302 | 20 | 310 | 4.8 | 0.0 | 0.00 | 0.00 | 0.00 | 69 | 1016.0 |
| 20260904214802 | 18 | 270 | 9.7 | 0.0 | 0.00 | 0.00 | 0.00 | 73 | 1016.0 |
| 20260904213302 | 18 | 270 | 9.7 | 0.0 | 0.00 | 0.00 | 0.00 | 73 | 1016.0 |